Location: Kalberh�ni
(46.4610°N, 7.2453°E)
Time: 02:27:34
(UTC+00:00)

Meteor 1-24 Rocket - Pass Details

Date: 20 June 2021
Orbit: 791 x 926 km, 81.2° (Epoch: 25 July)

Event Time Altitude Azimuth Distance (km) Brightness Sun altitude
Exits shadow 20:51:32 14° 154° (SSE) 2,086 5.1 -11.2°
Maximum altitude 20:55:37 38° 91° (E) 1,219 4.3 -11.6°
Drops below altitude 10° 21:00:40 10° 25° (NNE) 2,448 6.5 -12.1°
Sets 21:03:15 0° 18° (NNE) 3,408 7.4 -12.3°
